Tri-Cities, TN

8:34 PM EDT on June 27, 2017 (GMT -0400)
Tri-Cities Regional Tennessee / Virginia

Weather History for KTRI - February, 2014

Change the Weather History Date:

Monday, February 24, 2014

  Actual Average Record
Temperature  
Mean Temperature 40 °F 41 °F  
Max Temperature 51 °F 53 °F 77 °F (2017)
Min Temperature 29 °F 30 °F 4 °F (1967)
Degree Days  
Heating Degree Days 25 24  
Month to date heating degree days 612 636  
Since 1 July heating degree days 3366 3290  
Cooling Degree Days 0 0  
Month to date cooling degree days 0 0  
Year to date cooling degree days 0 0  
Moisture  
Dew Point 21 °F    
Average Humidity 45    
Maximum Humidity 72    
Minimum Humidity 18    
Precipitation  
Precipitation T in 0.12 in 1.17 in (2011)
Month to date precipitation 3.26 2.98  
Year to date precipitation 5.06 6.35  
Snow  
Snow 0.00 in 0.20 in - ()
Month to date snowfall 6.3 3.0  
Since 1 July snowfall 12.3 10.4  
Snow Depth 0.00 in    
Sea Level Pressure  
Sea Level Pressure 30.11 in    
Wind  
Wind Speed 7 mph (NNW)    
Max Wind Speed 17 mph    
Max Gust Speed 22 mph    
Visibility 10 miles    
Events Rain    
T = Trace of Precipitation, MM = Missing Value Source: NWS Daily Summary

Daily Weather History Graph

Daily Weather History Graph

Search for Another Location

Airport or City:

Trip Planner

Search our weather history database for the weather conditions in past years. The results will help you decide how hot, cold, wet, or windy it might be!

Date:

Astronomy

Feb. 24, 2014 Rise Set
Actual Time 7:06 AM EST 6:19 PM EST
Civil Twilight 6:40 AM EST 6:45 PM EST
Nautical Twilight 6:10 AM EST 7:15 PM EST
Astronomical Twilight 5:40 AM EST 7:45 PM EST
Moon 2:59 AM EST (2/24) 1:24 PM EST (2/24)
Length of Visible Light 12h 04m
Length of Day
11h 12m
Waning Crescent, 28% of the Moon is Illuminated
Feb 24
Waning Crescent
Mar 1
New
Mar 8
First Quarter
Mar 16
Full
Mar 23
Last Quarter

Hourly Weather History & Observations

Time (EST) Temp. Windchill Dew Point Humidity Pressure Visibility Wind Dir Wind Speed Gust Speed Precip Events Conditions
12:53 AM 45.0 °F 40.1 °F 32.0 °F 60% 30.01 in 10.0 mi NNW 9.2 mph - N/A   Overcast
1:53 AM 43.0 °F 37.7 °F 33.1 °F 68% 30.03 in 10.0 mi North 9.2 mph - 0.00 in Rain Light Rain
2:10 AM 42.1 °F 38.4 °F 34.0 °F 73% 30.05 in 10.0 mi NNE 5.8 mph - 0.00 in   Overcast
2:43 AM 42.1 °F 37.7 °F 34.0 °F 73% 30.06 in 10.0 mi North 6.9 mph - 0.00 in   Overcast
2:53 AM 42.1 °F 37.7 °F 33.1 °F 70% 30.02 in 10.0 mi North 6.9 mph - 0.00 in   Overcast
3:53 AM 39.9 °F 33.9 °F 30.9 °F 70% 30.04 in 10.0 mi North 9.2 mph - N/A   Overcast
4:43 AM 37.0 °F 33.3 °F 28.9 °F 73% 30.09 in 10.0 mi Variable 4.6 mph - N/A   Scattered Clouds
4:53 AM 37.0 °F 32.4 °F 28.9 °F 73% 30.07 in 10.0 mi North 5.8 mph - N/A   Mostly Cloudy
5:13 AM 36.0 °F 32.1 °F 28.0 °F 73% 30.10 in 10.0 mi North 4.6 mph - N/A   Scattered Clouds
5:21 AM 36.0 °F 33.3 °F 28.0 °F 73% 30.11 in 10.0 mi NNE 3.5 mph - N/A   Mostly Cloudy
5:53 AM 36.0 °F 29.0 °F 27.0 °F 70% 30.09 in 10.0 mi NNE 9.2 mph - N/A   Overcast
6:29 AM 32.0 °F 28.7 °F 25.0 °F 75% 30.11 in 10.0 mi NNE 3.5 mph - N/A   Scattered Clouds
6:53 AM 32.0 °F 26.4 °F 24.1 °F 73% 30.11 in 10.0 mi North 5.8 mph - N/A   Partly Cloudy
7:53 AM 34.0 °F 31.0 °F 24.1 °F 67% 30.14 in 10.0 mi North 3.5 mph - N/A   Partly Cloudy
8:53 AM 37.0 °F 32.4 °F 23.0 °F 57% 30.16 in 10.0 mi NNW 5.8 mph - N/A   Partly Cloudy
9:53 AM 39.9 °F 34.5 °F 23.0 °F 51% 30.18 in 10.0 mi North 8.1 mph - N/A   Partly Cloudy
10:53 AM 41.0 °F - 19.0 °F 41% 30.16 in 10.0 mi Calm Calm - N/A   Partly Cloudy
11:53 AM 44.1 °F 42.5 °F 17.1 °F 34% 30.17 in 10.0 mi Variable 3.5 mph - N/A   Partly Cloudy
12:53 PM 46.9 °F - 12.0 °F 24% 30.14 in 10.0 mi NW 9.2 mph 18.4 mph N/A   Clear
1:53 PM 48.9 °F - 9.0 °F 20% 30.13 in 10.0 mi West 10.4 mph 17.3 mph N/A   Clear
2:53 PM 51.1 °F - 10.0 °F 19% 30.11 in 10.0 mi West 15.0 mph 20.7 mph N/A   Clear
3:53 PM 50.0 °F - 8.1 °F 18% 30.12 in 10.0 mi WSW 8.1 mph - N/A   Clear
4:53 PM 48.9 °F - 8.1 °F 19% 30.13 in 10.0 mi West 13.8 mph - N/A   Clear
5:53 PM 46.0 °F 41.4 °F 8.1 °F 21% 30.14 in 10.0 mi WNW 9.2 mph - N/A   Clear
6:53 PM 43.0 °F 39.5 °F 8.1 °F 24% 30.14 in 10.0 mi WNW 5.8 mph - N/A   Clear
7:53 PM 39.9 °F 35.8 °F 10.0 °F 29% 30.15 in 10.0 mi WNW 5.8 mph - N/A   Clear
8:53 PM 39.9 °F 37.8 °F 9.0 °F 28% 30.14 in 10.0 mi WNW 3.5 mph - N/A   Clear
9:53 PM 35.1 °F - 14.0 °F 42% 30.14 in 10.0 mi Calm Calm - N/A   Clear
10:53 PM 32.0 °F - 16.0 °F 52% 30.12 in 10.0 mi Calm Calm - N/A   Clear
11:53 PM 30.0 °F 26.5 °F 16.0 °F 56% 30.09 in 10.0 mi North 3.5 mph - N/A   Clear